�������l�o���
Date,Time,MP-1(��Sv/h),MP-2(��Sv/h),MP-3(��Sv/h),MP-4(��Sv/h),MP-5(��Sv/h),MP-6(��Sv/h),MP-7(��Sv/h),MP-8(��Sv/h),����,����(m/s),���J
2018/03/05,00:00,0.873,1.459,0.909,1.703,1.173,0.484,0.860,0.824,��쓌,0.6,��
2018/03/05,00:10,0.871,1.461,0.912,1.702,1.171,0.484,0.859,0.826,�쐼,0.6,��
2018/03/05,00:20,0.871,1.459,0.907,1.703,1.171,0.483,0.861,0.826,���쐼,0.9,��
2018/03/05,00:30,0.874,1.459,0.911,1.703,1.172,0.483,0.863,0.827,���쐼,1.5,��
2018/03/05,00:40,0.873,1.460,0.908,1.701,1.171,0.485,0.861,0.826,���쐼,1.7,��
2018/03/05,00:50,0.872,1.458,0.909,1.703,1.171,0.484,0.861,0.826,��쐼,1.2,��
2018/03/05,01:00,0.872,1.458,0.908,1.701,1.170,0.485,0.862,0.827,��쐼,0.9,��
2018/03/05,01:10,0.873,1.458,0.910,1.702,1.170,0.483,0.860,0.825,��,1.4,��
2018/03/05,01:20,0.872,1.458,0.907,1.702,1.171,0.482,0.860,0.824,��쐼,0.9,��
2018/03/05,01:30,0.870,1.458,0.909,1.702,1.169,0.483,0.861,0.827,��,0.9,��
2018/03/05,01:40,0.871,1.457,0.910,1.702,1.172,0.482,0.861,0.824,���k��,0.8,��
2018/03/05,01:50,0.872,1.459,0.908,1.702,1.173,0.482,0.862,0.824,-,CALM,��
2018/03/05,02:00,0.869,1.458,0.910,1.703,1.170,0.484,0.861,0.824,�k��,0.9,��
2018/03/05,02:10,0.871,1.458,0.907,1.701,1.169,0.484,0.863,0.826,�k��,1.2,��
2018/03/05,02:20,0.869,1.458,0.908,1.704,1.172,0.483,0.860,0.824,�k��,2.3,��
2018/03/05,02:30,0.869,1.458,0.908,1.700,1.170,0.484,0.861,0.825,�k�k��,3.2,��
2018/03/05,02:40,0.870,1.461,0.908,1.702,1.171,0.484,0.861,0.825,�k�k��,4.6,��
2018/03/05,02:50,0.871,1.454,0.909,1.703,1.173,0.483,0.859,0.825,�k�k��,5.4,��
2018/03/05,03:00,0.868,1.459,0.908,1.700,1.171,0.483,0.859,0.825,�k�k��,4.2,��
2018/03/05,03:10,0.873,1.458,0.908,1.704,1.171,0.485,0.861,0.825,�k�k��,3.6,��
2018/03/05,03:20,0.869,1.459,0.908,1.704,1.172,0.482,0.861,0.825,�k�k��,4.0,��
2018/03/05,03:30,0.870,1.460,0.909,1.702,1.170,0.483,0.860,0.825,�k�k��,4.9,��
2018/03/05,03:40,0.872,1.460,0.907,1.700,1.171,0.484,0.861,0.825,�k�k��,5.7,��
2018/03/05,03:50,0.869,1.459,0.908,1.701,1.171,0.484,0.860,0.825,�k��,6.6,��
2018/03/05,04:00,0.869,1.457,0.908,1.701,1.171,0.483,0.861,0.825,�k�k��,8.3,��
2018/03/05,04:10,0.868,1.460,0.906,1.701,1.170,0.485,0.862,0.825,�k�k��,8.5,��
2018/03/05,04:20,0.871,1.460,0.908,1.702,1.171,0.482,0.863,0.827,�k��,8.1,��
2018/03/05,04:30,0.871,1.461,0.907,1.703,1.172,0.483,0.862,0.827,�k�k��,7.1,��
2018/03/05,04:40,0.871,1.459,0.908,1.703,1.172,0.482,0.863,0.826,�k��,7.2,��
2018/03/05,04:50,0.872,1.459,0.907,1.704,1.172,0.483,0.862,0.826,�k�k��,5.7,��
2018/03/05,05:00,0.872,1.461,0.909,1.701,1.173,0.482,0.862,0.825,�k�k��,6.4,��
2018/03/05,05:10,0.872,1.460,0.907,1.703,1.172,0.483,0.861,0.826,�k�k��,5.9,��
2018/03/05,05:20,0.871,1.460,0.908,1.704,1.172,0.483,0.861,0.824,�k�k��,6.1,��
2018/03/05,05:30,0.873,1.460,0.908,1.704,1.173,0.483,0.860,0.827,�k�k��,6.3,��
2018/03/05,05:40,0.873,1.460,0.909,1.705,1.170,0.481,0.861,0.827,�k�k��,6.1,��
2018/03/05,05:50,0.869,1.459,0.908,1.702,1.171,0.483,0.859,0.827,�k�k��,5.8,��
2018/03/05,06:00,0.872,1.457,0.908,1.704,1.171,0.483,0.862,0.826,�k�k��,6.4,��
2018/03/05,06:10,0.871,1.459,0.907,1.704,1.169,0.483,0.860,0.826,�k�k��,6.9,��
2018/03/05,06:20,0.872,1.461,0.909,1.700,1.171,0.483,0.862,0.827,�k�k��,7.5,��
2018/03/05,06:30,0.871,1.457,0.909,1.704,1.170,0.483,0.862,0.827,�k�k��,6.6,��
2018/03/05,06:40,0.871,1.460,0.907,1.703,1.174,0.484,0.862,0.827,�k�k��,6.5,��
2018/03/05,06:50,0.873,1.458,0.907,1.704,1.170,0.484,0.862,0.827,�k�k��,6.6,��
2018/03/05,07:00,0.870,1.461,0.907,1.703,1.172,0.482,0.859,0.826,�k�k��,6.3,��
2018/03/05,07:10,0.871,1.459,0.906,1.704,1.172,0.483,0.863,0.826,�k�k��,5.0,��
2018/03/05,07:20,0.869,1.459,0.908,1.702,1.172,0.483,0.861,0.828,�k�k��,5.0,��
2018/03/05,07:30,0.872,1.456,0.908,1.704,1.171,0.483,0.861,0.828,�k�k��,5.2,��
2018/03/05,07:40,0.872,1.459,0.908,1.702,1.173,0.484,0.862,0.826,�k�k��,5.3,��
2018/03/05,07:50,0.872,1.457,0.908,1.702,1.170,0.483,0.862,0.827,�k�k��,4.6,��
2018/03/05,08:00,0.871,1.456,0.906,1.702,1.172,0.484,0.862,0.827,�k�k��,4.6,��
2018/03/05,08:10,0.871,1.459,0.906,1.702,1.174,0.482,0.862,0.826,�k�k��,5.4,��
2018/03/05,08:20,0.873,1.459,0.909,1.704,1.171,0.484,0.861,0.827,�k�k��,6.6,��
2018/03/05,08:30,0.872,1.459,0.905,1.704,1.172,0.483,0.861,0.827,�k�k��,8.0,��
2018/03/05,08:40,0.870,1.458,0.906,1.703,1.171,0.482,0.861,0.827,�k�k��,8.7,��
2018/03/05,08:50,0.874,1.457,0.906,1.704,1.171,0.483,0.861,0.827,�k�k��,6.9,��
2018/03/05,09:00,0.872,1.458,0.907,1.704,1.167,0.482,0.861,0.828,�k,6.8,��
2018/03/05,09:10,0.872,1.458,0.907,1.702,1.173,0.482,0.860,0.827,�k�k��,7.4,��
2018/03/05,09:20,0.872,1.458,0.904,1.704,1.172,0.482,0.862,0.828,�k�k��,8.4,��
2018/03/05,09:30,0.872,1.459,0.904,1.703,1.175,0.483,0.860,0.828,�k�k��,7.7,��
2018/03/05,09:40,0.870,1.457,0.904,1.701,1.173,0.483,0.858,0.829,�k,6.7,��
2018/03/05,09:50,0.871,1.458,0.906,1.703,1.172,0.484,0.861,0.827,�k�k��,7.5,��
2018/03/05,10:00,0.871,1.459,0.906,1.706,1.174,0.484,0.861,0.827,�k�k��,7.1,��
2018/03/05,10:10,0.871,1.455,0.905,1.702,1.172,0.483,0.860,0.826,�k,6.3,��
2018/03/05,10:20,0.871,1.456,0.903,1.703,1.174,0.482,0.860,0.827,�k,4.9,�L
2018/03/05,10:30,0.871,1.456,0.904,1.701,1.172,0.483,0.859,0.826,�k,6.3,��
2018/03/05,10:40,0.872,1.456,0.904,1.701,1.172,0.483,0.860,0.826,�k�k��,6.2,�L
2018/03/05,10:50,0.873,1.456,0.905,1.702,1.173,0.484,0.861,0.828,�k�k��,6.5,�L
2018/03/05,11:00,0.872,1.461,0.904,1.704,1.172,0.483,0.860,0.827,�k�k��,7.2,�L
2018/03/05,11:10,0.869,1.459,0.904,1.702,1.172,0.483,0.861,0.826,�k�k��,6.4,�L
2018/03/05,11:20,0.871,1.458,0.904,1.703,1.170,0.481,0.861,0.827,�k,6.4,�L
2018/03/05,11:30,0.869,1.452,0.901,1.699,1.167,0.483,0.859,0.828,�k,7.1,�L
2018/03/05,11:40,0.867,1.444,0.902,1.690,1.157,0.483,0.856,0.825,�k�k��,11.1,�L
2018/03/05,11:50,0.865,1.439,0.897,1.684,1.156,0.484,0.855,0.824,�k�k��,8.5,�L
2018/03/05,12:00,0.863,1.433,0.898,1.681,1.151,0.484,0.854,0.823,�k�k��,8.4,�L
2018/03/05,12:10,0.862,1.431,0.898,1.674,1.148,0.484,0.853,0.822,�k�k��,8.5,�L
2018/03/05,12:20,0.861,1.429,0.890,1.673,1.148,0.482,0.853,0.822,�k�k��,8.3,�L
2018/03/05,12:30,0.859,1.430,0.892,1.669,1.145,0.483,0.853,0.822,�k�k��,7.1,�L
2018/03/05,12:40,0.857,1.427,0.892,1.669,1.146,0.483,0.854,0.821,�k�k��,7.9,�L
2018/03/05,12:50,0.857,1.426,0.892,1.670,1.143,0.482,0.853,0.820,�k�k��,7.1,�L
2018/03/05,13:00,0.857,1.427,0.890,1.667,1.145,0.482,0.854,0.821,�k,7.9,�L
2018/03/05,13:10,0.856,1.422,0.889,1.667,1.142,0.482,0.854,0.819,�k�k��,7.1,�L
2018/03/05,13:20,0.855,1.423,0.889,1.666,1.142,0.481,0.853,0.819,�k�k��,6.9,�L
2018/03/05,13:30,0.853,1.421,0.885,1.665,1.139,0.482,0.852,0.819,�k�k��,7.7,�L
2018/03/05,13:40,0.855,1.420,0.884,1.659,1.141,0.480,0.851,0.819,�k�k��,7.3,�L
2018/03/05,13:50,0.851,1.418,0.884,1.663,1.138,0.480,0.853,0.818,�k�k��,7.0,�L
2018/03/05,14:00,0.850,1.410,0.883,1.657,1.133,0.480,0.851,0.817,�k�k��,1.7,�L
2018/03/05,14:10,0.848,1.403,0.877,1.645,1.131,0.480,0.848,0.818,�k�k��,6.6,�L
2018/03/05,14:20,0.847,1.399,0.877,1.647,1.130,0.481,0.850,0.817,�k�k��,7.2,�L
2018/03/05,14:30,0.848,1.402,0.877,1.644,1.131,0.479,0.850,0.817,�k�k��,7.8,�L
2018/03/05,14:40,0.846,1.399,0.880,1.640,1.126,0.479,0.848,0.814,�k�k��,8.7,�L
2018/03/05,14:50,0.844,1.395,0.883,1.638,1.125,0.482,0.849,0.814,�k�k��,7.2,�L
2018/03/05,15:00,0.842,1.394,0.879,1.631,1.122,0.479,0.846,0.815,�k�k��,7.4,�L
2018/03/05,15:10,0.839,1.386,0.877,1.628,1.119,0.479,0.846,0.814,�k�k��,6.9,�L
2018/03/05,15:20,0.837,1.384,0.875,1.620,1.113,0.478,0.844,0.811,�k�k��,5.6,�L
2018/03/05,15:30,0.837,1.380,0.874,1.616,1.111,0.477,0.841,0.811,�k�k��,6.8,�L
2018/03/05,15:40,0.838,1.380,0.871,1.618,1.114,0.477,0.842,0.812,�k�k��,7.2,�L
2018/03/05,15:50,0.837,1.378,0.872,1.616,1.110,0.477,0.842,0.810,�k�k��,7.0,�L
2018/03/05,16:00,0.834,1.373,0.868,1.611,1.105,0.478,0.840,0.810,�k�k��,8.5,�L
2018/03/05,16:10,0.834,1.371,0.868,1.611,1.102,0.476,0.840,0.809,�k�k��,10.0,�L
2018/03/05,16:20,0.832,1.369,0.866,1.608,1.098,0.477,0.837,0.808,�k�k��,10.3,�L
2018/03/05,16:30,0.831,1.370,0.867,1.606,1.099,0.475,0.837,0.808,�k�k��,9.2,�L
2018/03/05,16:40,0.833,1.369,0.866,1.611,1.099,0.476,0.838,0.807,�k�k��,6.8,�L
2018/03/05,16:50,0.832,1.369,0.866,1.612,1.098,0.476,0.838,0.807,�k�k��,6.9,�L
2018/03/05,17:00,0.831,1.368,0.866,1.609,1.096,0.475,0.839,0.807,�k�k��,6.6,�L
2018/03/05,17:10,0.830,1.368,0.869,1.605,1.098,0.475,0.837,0.807,�k�k��,6.3,�L
2018/03/05,17:20,0.826,1.364,0.865,1.602,1.092,0.475,0.836,0.805,�k�k��,7.2,�L
2018/03/05,17:30,0.830,1.367,0.867,1.605,1.095,0.475,0.836,0.806,�k�k��,8.1,�L
2018/03/05,17:40,0.830,1.371,0.868,1.604,1.094,0.476,0.837,0.807,�k,8.0,�L
2018/03/05,17:50,0.829,1.370,0.867,1.606,1.097,0.475,0.837,0.807,�k,7.8,�L
2018/03/05,18:00,0.830,1.371,0.868,1.609,1.098,0.475,0.839,0.806,�k�k��,8.9,�L
2018/03/05,18:10,0.830,1.374,0.867,1.610,1.098,0.475,0.837,0.807,�k,8.7,�L
2018/03/05,18:20,0.831,1.372,0.872,1.610,1.098,0.474,0.837,0.807,�k,9.8,�L
2018/03/05,18:30,0.830,1.375,0.869,1.608,1.095,0.475,0.838,0.806,�k,9.0,�L
2018/03/05,18:40,0.829,1.374,0.865,1.608,1.095,0.474,0.837,0.807,�k,9.8,�L
2018/03/05,18:50,0.830,1.375,0.868,1.610,1.094,0.475,0.838,0.805,�k,8.7,�L
2018/03/05,19:00,0.828,1.375,0.867,1.609,1.096,0.473,0.838,0.807,�k�k��,10.5,�L
2018/03/05,19:10,0.827,1.376,0.869,1.607,1.096,0.474,0.839,0.806,�k,11.6,�L
2018/03/05,19:20,0.830,1.374,0.868,1.606,1.092,0.473,0.839,0.808,�k,10.8,�L
2018/03/05,19:30,0.830,1.368,0.865,1.606,1.095,0.475,0.837,0.807,�k,11.9,�L
2018/03/05,19:40,0.828,1.365,0.864,1.604,1.089,0.476,0.836,0.806,�k,11.3,�L
2018/03/05,19:50,0.828,1.364,0.864,1.596,1.085,0.474,0.836,0.807,�k,12.7,�L
2018/03/05,20:00,0.826,1.362,0.862,1.597,1.083,0.475,0.834,0.805,�k,9.7,�L
2018/03/05,20:10,0.827,1.362,0.862,1.599,1.082,0.476,0.834,0.804,�k�k��,11.1,�L
2018/03/05,20:20,0.825,1.360,0.862,1.599,1.083,0.474,0.836,0.806,�k�k��,10.2,�L
2018/03/05,20:30,0.826,1.362,0.862,1.599,1.083,0.475,0.835,0.805,�k,8.6,�L
2018/03/05,20:40,0.828,1.362,0.863,1.600,1.083,0.474,0.834,0.804,�k,8.6,�L
2018/03/05,20:50,0.827,1.361,0.861,1.596,1.082,0.472,0.832,0.805,�k,8.5,�L
2018/03/05,21:00,0.828,1.363,0.860,1.598,1.080,0.473,0.832,0.805,�k�k��,8.6,�L
2018/03/05,21:10,0.825,1.359,0.862,1.595,1.078,0.474,0.833,0.803,�k,7.7,�L
2018/03/05,21:20,0.828,1.361,0.863,1.597,1.081,0.476,0.832,0.803,�k�k��,7.6,�L
2018/03/05,21:30,0.826,1.364,0.863,1.597,1.082,0.476,0.834,0.804,�k�k��,7.6,�L
2018/03/05,21:40,0.826,1.363,0.861,1.598,1.080,0.475,0.832,0.804,�k�k��,7.2,�L
2018/03/05,21:50,0.825,1.361,0.864,1.598,1.081,0.476,0.834,0.805,�k�k��,6.7,�L
2018/03/05,22:00,0.824,1.362,0.863,1.598,1.077,0.476,0.832,0.803,�k�k��,7.6,�L
2018/03/05,22:10,0.822,1.362,0.860,1.594,1.077,0.475,0.831,0.803,�k�k��,7.6,�L
2018/03/05,22:20,0.822,1.359,0.860,1.592,1.074,0.475,0.831,0.804,�k�k��,8.8,�L
2018/03/05,22:30,0.822,1.357,0.858,1.593,1.076,0.474,0.830,0.802,�k�k��,9.9,�L
2018/03/05,22:40,0.822,1.358,0.860,1.591,1.074,0.474,0.832,0.801,�k�k��,8.8,�L
2018/03/05,22:50,0.822,1.358,0.858,1.592,1.071,0.473,0.832,0.802,�k,9.4,�L
2018/03/05,23:00,0.822,1.359,0.859,1.594,1.072,0.475,0.833,0.801,�k�k��,8.9,�L
2018/03/05,23:10,0.822,1.361,0.860,1.592,1.073,0.475,0.832,0.804,�k,9.6,�L
2018/03/05,23:20,0.823,1.363,0.861,1.595,1.075,0.474,0.833,0.803,�k,7.6,�L
2018/03/05,23:30,0.823,1.362,0.862,1.597,1.075,0.474,0.833,0.805,�k�k��,8.1,�L
2018/03/05,23:40,0.822,1.359,0.863,1.597,1.075,0.475,0.834,0.802,�k,8.7,�L
2018/03/05,23:50,0.822,1.360,0.860,1.596,1.076,0.474,0.833,0.803,�k,7.3,�L
